Flag for U.S.A. Weather past 2 weeks in Amarillo, Texas, U.S.A.

Now
66 °F

Thundershowers. Low clouds.


Feels Like: 66 °F
Forecast: 63 / 79 °F
Wind: 13 mph from Southeast

Location: Amarillo International Airport

Current Time: Jul 30, 2014 at 6:15:59 AM

Latest Report: Jul 30, 2014 at 5:53 AM


Visibility: 8 mi

Pressure: 29.93 "Hg

Humidity: 93%

Dew point: 64 °F

Location of AmarilloLocation

Historic Weather in Amarillo — Graph

°F

Amarillo temperature yesterday

Maximum temperature yesterday: 79 °F (at 3:53 PM)
Minimum temperature yesterday: 63 °F (at 3:53 AM)
Average temperature yesterday: 70 °F

Past Weeks' High & Low Weather Summary

 TemperatureHumidityPressure
High99 °F (Jul 25, 3:53 PM)100% (Jul 16, 11:52 PM)30.38 "Hg (Jul 16, 11:52 PM)
Low59 °F (Jul 17, 8:53 AM)20% (Jul 26, 4:53 PM)29.75 "Hg (Jul 16, 8:53 PM)
Average76 °F64%29.97 "Hg
* Reported Jul 15 4:53 AM — Jul 30 4:53 AM, Amarillo, Weather by CustomWeather, © 2014

Note: Actual official high and low records may vary slightly from our data, if they occured in-between our weather recording intervals... More about our weather records

Advertising

Amarillo weather history for previous 24 hours

 ConditionsComfort  
Time TempWeatherWind HumidityBarometerVisibility
4:53 AM
Jul 30
66 °FLight rain. Passing clouds.12 mph90%29.95 "Hg10 mi
3:53 AM67 °FPassing clouds.10 mph85%29.94 "Hg10 mi
2:53 AM67 °FMostly cloudy.14 mph85%29.96 "Hg10 mi
1:53 AM68 °FOvercast.12 mph78%29.98 "Hg10 mi
12:53 AM68 °FPassing clouds.8 mph76%29.99 "Hg10 mi
11:53 PM
Jul 29
69 °FPassing clouds.13 mph73%30.00 "Hg10 mi
10:53 PM68 °FClear.9 mph78%30.03 "Hg10 mi
9:53 PM70 °FPassing clouds.13 mph73%30.02 "Hg10 mi
8:53 PM73 °FPartly sunny.18 mph69%30.00 "Hg10 mi
7:53 PM75 °FOvercast.13 mph66%29.99 "Hg10 mi
6:53 PM76 °FOvercast.14 mph60%30.00 "Hg10 mi
5:53 PM76 °FScattered clouds.12 mph60%30.01 "Hg10 mi
4:53 PM75 °FLight rain. Overcast.9 mph64%30.03 "Hg10 mi
3:53 PM79 °FPassing clouds.9 mph56%30.06 "Hg10 mi
2:53 PM75 °FPartly sunny.8 mph66%30.10 "Hg10 mi
1:53 PM75 °FScattered clouds.12 mph64%30.11 "Hg10 mi
12:53 PM77 °FScattered clouds.13 mph62%30.11 "Hg10 mi
11:53 AM74 °FMostly cloudy.14 mph64%30.14 "Hg10 mi
10:53 AM72 °FPassing clouds.17 mph61%30.13 "Hg10 mi
9:53 AM68 °FOvercast.12 mph73%30.15 "Hg10 mi
8:53 AM68 °FMostly cloudy.12 mph76%30.14 "Hg10 mi
7:53 AM65 °FOvercast.9 mph85%30.14 "Hg10 mi
6:53 AM63 °FPassing clouds.9 mph84%30.13 "Hg10 mi
Weather by CustomWeather, © 2014

See weather overviewHow to use our weather pages